Theta_e
351 350 350 350 350 349 349 348 348 349 349 349 349 348 348 346 346 344 344 344 344 344 343 343 343 342 340 339 339 339 340 342 344 344 345 346 347 350 353 352 351 353 354 355 356 355 354 355 356 356 355 357 359 358 357 357 357 357 356 356 356 356 354 356 358 360 361 359 356 355 353 351 353 353 352 356 356 349 348 349 350 356 361 362 361
351 350 350 350 350 349 349 349 348 348 349 349 348 348 347 346 345 344 344 342 342 342 343 342 343 343 341 338 338 339 340 340 343 344 344 345 345 347 349 350 351 353 353 353 355 355 354 354 356 356 355 355 358 357 357 357 357 357 358 358 358 358 356 356 359 360 361 361 359 357 355 353 355 356 355 356 354 348 350 353 354 359 361 361 362
350 350 349 349 349 349 350 350 349 349 349 349 348 348 347 346 345 344 343 342 341 340 341 342 342 342 340 339 339 339 340 340 341 343 344 344 344 345 346 347 349 352 354 354 355 356 356 356 357 358 358 357 358 358 357 357 357 357 358 359 359 359 358 356 357 360 360 360 360 359 358 358 358 358 356 354 352 351 354 356 355 359 361 361 361
350 350 349 349 350 350 350 350 350 349 349 349 348 348 347 347 346 344 344 344 342 339 338 339 340 341 340 340 341 340 340 340 340 342 343 344 344 344 344 344 346 349 353 354 356 356 356 356 357 358 358 358 358 359 359 357 357 357 358 359 358 359 360 357 356 359 360 360 361 360 358 356 356 356 356 356 355 352 353 356 356 357 360 361 360
350 349 349 350 351 351 351 351 351 350 349 349 348 348 347 347 346 345 344 345 344 341 338 338 338 339 339 340 341 340 340 340 340 340 341 343 344 344 344 344 343 345 348 350 352 354 355 356 356 356 357 357 356 358 358 357 356 357 357 358 359 358 359 359 357 358 360 360 362 362 358 356 356 356 355 356 358 357 355 355 355 355 357 360 360
349 349 350 350 350 351 351 351 351 350 350 349 348 348 347 347 347 345 345 345 345 343 342 339 338 336 336 337 338 338 339 340 340 340 341 342 343 344 344 343 342 343 344 347 349 351 353 355 355 355 355 356 355 356 356 355 356 357 357 357 358 358 359 359 359 359 361 361 361 362 360 359 359 358 355 354 356 359 358 358 358 356 355 358 360
349 349 349 350 351 351 351 351 350 350 350 349 349 348 347 347 347 346 345 345 344 345 344 342 340 337 336 336 335 335 337 339 340 340 341 343 343 344 344 344 344 344 343 346 350 352 353 354 355 355 353 352 352 353 353 354 355 356 357 356 357 358 358 360 361 360 361 361 360 361 361 359 359 358 354 351 353 357 360 360 360 359 358 359 360
349 349 349 349 351 351 350 350 350 350 350 350 349 349 348 347 347 346 346 345 345 345 345 344 342 340 339 338 337 337 338 339 340 340 341 342 343 344 343 343 345 347 345 346 349 351 352 354 356 355 353 350 349 350 351 352 354 356 356 355 356 358 359 359 361 361 360 361 360 360 361 361 360 358 356 355 358 361 361 359 360 360 359 360 360
348 349 349 350 350 350 349 350 350 350 350 349 349 349 349 348 347 346 346 345 346 345 345 345 345 343 342 341 339 340 341 340 340 339 340 341 342 343 343 342 344 347 348 349 351 351 351 353 355 355 351 347 347 348 348 348 350 353 355 354 354 357 359 360 360 361 361 360 360 361 361 361 361 361 360 360 361 362 360 358 359 360 360 361 361
348 348 349 349 348 348 348 349 350 350 349 348 348 348 349 349 348 347 346 345 345 345 345 345 346 345 344 343 342 342 341 340 339 337 338 340 341 343 343 341 341 344 348 350 352 353 351 351 352 351 347 344 346 348 348 346 346 348 351 353 353 356 359 360 360 360 361 360 360 360 360 360 360 360 361 360 360 361 361 361 361 362 360 361 362
347 347 348 348 347 347 348 348 348 349 348 348 348 347 348 349 348 347 347 346 346 345 345 345 346 346 346 346 345 345 344 341 340 339 338 339 340 342 343 343 343 345 348 350 351 353 353 352 351 350 346 344 345 347 347 347 347 345 346 348 350 353 357 359 360 360 360 360 359 359 359 359 359 360 360 360 360 361 362 361 361 361 361 360 360
347 347 347 347 347 347 348 348 348 349 348 348 348 347 347 348 348 348 348 348 347 346 346 347 346 346 347 347 347 347 347 344 343 342 341 340 339 342 345 348 350 350 351 351 352 353 354 354 354 354 351 347 346 347 348 348 348 347 346 346 348 349 352 354 356 359 360 360 359 359 359 359 361 362 360 360 360 361 361 361 360 359 360 360 360
348 348 348 348 347 347 348 349 349 349 348 348 348 348 349 349 349 349 349 349 348 348 348 348 347 347 347 348 348 349 349 347 346 344 343 343 341 342 345 350 353 353 353 353 353 354 354 355 356 356 354 349 347 349 351 351 350 349 349 348 349 349 348 349 350 353 356 359 360 360 360 361 361 361 359 358 358 359 361 362 361 360 360 360 360
351 350 350 349 347 348 348 350 350 349 349 349 349 351 350 349 349 350 351 351 350 350 349 349 349 348 348 349 349 349 350 349 348 347 345 345 344 343 344 348 352 354 353 353 353 354 354 354 355 356 354 351 349 349 350 352 353 352 351 350 348 347 347 348 348 349 351 355 358 359 358 359 359 355 354 355 355 357 359 360 361 362 361 360 359
355 353 352 351 350 350 349 350 351 351 351 351 351 352 351 351 351 352 352 353 352 351 350 351 351 350 349 350 350 350 350 350 349 348 348 346 346 345 345 347 350 353 354 354 353 353 354 354 354 355 355 353 351 350 351 353 354 355 355 354 352 350 350 348 348 348 348 350 352 353 353 355 355 353 353 356 355 353 354 355 357 358 359 358 358
356 356 355 354 352 352 351 351 351 351 353 353 354 354 353 352 352 353 354 354 353 353 352 352 352 351 351 351 351 351 351 350 349 349 349 348 347 346 346 347 349 352 354 355 354 352 352 353 354 354 355 354 352 351 351 353 356 358 358 358 357 356 355 350 346 346 348 348 349 350 350 351 352 352 353 355 355 354 354 354 355 356 357 358 358
349 354 357 357 355 354 354 353 353 353 354 355 355 355 355 354 354 354 355 355 354 355 354 354 353 353 353 352 352 352 352 351 351 350 350 349 347 347 347 347 348 351 354 355 355 353 352 352 352 353 354 354 352 351 351 352 355 358 359 359 359 358 357 354 348 345 345 348 349 349 349 349 350 350 350 351 353 354 355 357 357 357 359 359 359
341 347 353 356 358 358 357 356 356 356 356 356 356 356 356 356 355 355 355 355 355 355 355 355 355 354 354 353 353 353 353 352 352 351 351 350 348 348 348 348 349 351 353 355 356 355 353 352 351 352 353 353 352 351 352 352 354 356 358 359 359 358 358 357 355 350 346 347 349 350 349 349 349 349 350 350 351 352 354 356 357 357 360 360 359
336 340 345 349 352 357 358 358 358 358 357 357 356 357 357 357 356 355 355 356 356 356 356 356 356 356 355 355 354 354 354 354 353 352 352 351 350 349 348 349 351 352 354 355 356 356 355 353 352 352 352 352 352 352 352 352 353 355 358 359 359 359 358 357 358 356 353 351 351 350 349 350 350 350 350 351 352 352 352 353 356 358 360 361 360
333 336 339 342 346 351 356 359 359 359 359 359 358 359 359 358 357 357 357 357 357 357 357 357 357 357 356 356 356 355 355 355 354 353 353 352 352 350 349 350 352 353 354 355 356 357 357 355 353 352 351 352 352 352 352 353 353 354 357 359 359 358 357 356 355 355 355 355 354 354 353 352 352 352 353 352 353 353 353 352 354 357 360 361 360
332 334 336 339 342 347 352 357 359 359 359 360 360 360 360 359 359 359 358 358 358 357 357 358 357 357 357 357 357 357 356 356 356 355 354 353 353 352 350 351 352 353 355 355 356 357 357 357 355 353 351 351 351 351 352 353 352 353 355 357 356 354 354 355 354 354 355 356 356 356 356 355 355 355 355 355 354 354 354 354 354 355 358 360 359
332 332 334 337 340 344 348 353 357 358 359 360 360 361 361 360 360 360 359 359 358 358 357 357 357 358 358 358 358 358 357 357 356 356 355 354 354 354 352 352 352 354 355 356 356 356 357 357 356 353 351 351 351 351 352 352 352 353 353 354 353 352 352 353 354 356 357 357 357 357 357 357 358 357 357 357 357 356 355 356 355 355 356 358 358
331 331 333 336 339 343 345 348 352 354 356 358 359 360 360 361 360 360 360 360 359 359 358 358 357 357 358 358 359 359 359 358 357 356 356 355 355 355 354 353 352 353 355 356 356 356 356 357 356 353 352 352 351 351 352 352 352 352 352 351 351 352 352 353 353 356 357 357 356 357 357 357 358 359 359 358 358 358 357 355 356 356 356 356 357
331 331 332 334 337 341 344 346 348 349 350 353 356 358 360 360 360 361 361 360 360 359 359 359 359 358 359 359 360 360 360 359 358 357 356 356 355 355 355 354 353 353 353 355 356 356 357 357 355 353 352 352 352 352 352 352 352 351 351 351 351 352 353 353 353 355 356 356 356 356 357 358 359 359 359 357 357 358 357 356 356 357 357 357 358
330 330 331 334 336 339 342 344 346 347 348 349 351 355 358 359 360 360 361 360 361 361 360 360 360 360 360 361 361 361 361 361 360 359 357 356 356 356 355 355 354 353 353 353 355 356 356 355 354 353 353 353 352 352 352 352 352 352 351 351 352 352 352 352 353 354 355 355 356 356 357 358 358 357 356 355 357 359 359 359 358 357 358 359 359
329 329 331 332 334 337 340 342 345 347 349 351 352 354 357 360 361 361 361 361 361 361 361 361 361 361 361 362 362 362 362 361 361 360 359 357 357 356 355 355 354 354 353 353 353 354 354 354 354 353 353 353 353 353 353 353 352 352 352 352 352 352 352 352 352 353 355 356 357 357 358 359 358 358 357 357 357 359 359 359 359 358 358 359 358
328 328 329 330 332 335 338 341 342 345 348 352 353 354 357 361 362 362 362 362 362 362 362 362 362 362 362 363 363 362 362 362 362 362 360 359 358 357 356 355 355 354 353 353 353 353 353 353 353 353 353 353 353 353 353 353 352 352 352 352 352 352 352 353 353 353 355 356 357 359 359 360 360 359 359 358 357 355 356 358 359 359 358 358 357
327 327 327 329 332 334 336 338 339 341 344 347 350 353 356 360 363 364 364 364 363 363 363 363 363 363 363 363 364 363 363 363 363 362 362 360 359 357 356 356 355 354 354 353 353 353 352 352 353 353 352 352 353 352 352 352 352 352 352 352 352 352 353 353 353 354 355 357 358 360 360 360 360 358 358 358 357 356 356 357 358 358 358 357 357
326 326 327 329 331 332 333 334 336 338 340 343 346 350 352 355 358 361 364 365 364 364 364 364 364 364 364 364 364 364 364 364 363 362 362 361 360 358 357 356 356 355 355 355 354 352 352 352 353 353 353 352 352 353 353 353 353 353 353 353 353 352 353 353 353 354 355 356 358 359 359 359 359 358 358 358 357 357 357 358 358 357 357 357 356
324 326 327 327 329 329 330 331 334 336 338 339 341 344 346 349 351 354 358 362 364 364 365 365 365 364 365 365 365 364 364 364 363 362 361 361 360 359 359 358 358 357 357 356 352 350 350 352 353 354 355 355 354 355 355 356 356 356 355 355 354 354 354 354 354 355 355 356 357 357 358 359 359 358 358 358 357 357 357 357 356 356 356 355 354
323 325 325 326 327 327 327 329 332 334 335 336 338 339 341 346 350 352 354 358 362 363 363 364 364 364 364 364 365 364 363 363 362 362 361 360 360 359 359 359 358 357 357 354 350 348 350 353 354 354 355 355 355 356 356 357 358 358 357 357 356 355 355 355 355 355 355 356 356 357 357 358 358 358 357 356 356 355 355 354 353 353 354 353 351
322 323 324 324 325 326 327 328 330 331 332 333 335 337 339 342 347 350 352 355 359 362 363 363 363 363 363 363 363 363 363 362 361 361 360 360 360 359 359 358 358 357 356 353 350 348 350 352 354 355 355 356 356 356 356 357 358 359 359 359 359 358 356 356 355 355 355 356 356 356 356 356 356 356 355 355 354 353 352 350 348 348 349 349 348
321 321 322 323 324 325 326 327 327 327 328 329 332 335 338 341 344 346 348 350 354 359 362 363 363 362 363 362 362 362 362 362 361 361 360 360 359 359 359 358 357 357 355 352 349 350 351 352 354 355 356 356 357 357 357 357 358 359 359 360 360 359 358 356 355 355 355 355 356 356 355 355 355 354 353 353 353 351 348 347 346 345 345 345 344
319 320 322 323 324 324 325 325 324 325 325 326 328 332 336 339 341 342 344 347 350 354 358 362 363 363 362 362 362 361 361 361 361 360 360 360 360 359 358 357 356 355 354 351 349 351 353 354 354 355 356 357 357 357 357 358 358 359 359 360 360 360 360 358 357 355 355 354 355 356 355 354 354 353 352 351 351 349 346 345 344 344 343 343 343
318 319 321 322 323 323 323 323 323 323 324 324 326 328 331 334 337 340 343 345 347 349 352 356 360 362 362 362 361 361 361 361 361 360 359 359 358 358 356 354 352 352 351 350 349 350 353 354 355 355 355 356 357 357 358 358 358 359 359 359 360 360 361 360 358 356 355 355 355 355 355 354 353 353 351 349 348 347 345 344 343 342 343 343 343
318 318 319 320 321 321 321 321 322 322 322 323 324 326 328 331 335 339 342 344 346 347 349 351 354 357 358 360 361 361 361 361 360 360 359 357 357 356 354 351 351 351 350 350 350 350 351 353 355 355 356 356 356 357 358 358 358 359 359 359 359 360 361 361 359 356 355 355 354 354 354 353 352 352 350 348 346 345 345 345 344 342 342 342 342
317 317 317 318 319 320 320 320 321 321 321 322 323 325 327 329 332 336 339 342 344 346 346 348 349 351 354 357 359 360 361 361 360 359 358 356 355 353 352 352 352 352 351 351 351 351 351 352 353 355 356 356 356 357 357 357 358 359 359 358 359 360 360 360 358 356 354 354 353 353 353 352 351 351 349 348 346 345 344 344 343 343 342 341 342
316 317 316 317 317 318 319 320 321 320 321 322 323 324 324 327 329 332 336 339 342 344 346 347 348 349 352 354 356 358 359 360 358 357 356 355 353 352 352 352 352 353 353 353 354 353 352 352 353 354 355 356 357 356 357 358 358 359 359 358 358 358 358 358 357 355 354 353 352 352 352 351 351 350 348 347 346 344 344 344 343 343 341 341 340
316 316 316 315 316 317 318 319 320 320 321 322 322 322 322 324 326 329 331 334 337 341 344 346 347 349 350 351 353 354 354 355 355 355 355 355 355 354 353 351 350 353 354 354 354 353 352 352 353 353 354 355 356 356 356 357 358 358 359 359 359 358 357 357 355 354 353 353 352 352 351 351 351 350 348 347 346 346 344 344 343 342 341 340 339
315 315 315 315 316 317 318 318 319 320 320 320 320 320 321 322 323 325 326 328 331 335 338 342 345 348 348 349 350 351 351 352 353 354 354 354 354 354 352 349 349 352 353 352 353 353 352 352 352 352 352 353 354 355 356 356 356 357 358 358 358 358 357 356 355 354 353 352 352 351 351 351 350 349 347 346 346 346 345 344 343 342 341 339 338
314 315 315 315 316 316 317 318 318 318 318 318 318 319 319 320 321 322 323 325 327 329 332 336 340 343 346 347 347 348 349 351 352 354 354 354 353 353 351 350 351 354 354 352 351 352 352 352 352 351 351 352 353 354 354 355 355 356 356 357 357 356 356 356 355 354 353 352 351 350 350 350 349 348 346 345 345 345 344 344 343 341 340 339 338
314 314 315 315 316 316 316 316 317 317 316 316 317 317 318 318 319 319 320 322 323 325 327 330 333 337 340 343 344 346 348 350 351 352 353 352 352 352 352 351 352 354 354 352 349 349 350 352 351 351 351 352 352 352 353 354 354 354 354 355 355 355 355 355 354 353 353 352 351 350 349 348 347 346 345 345 344 344 344 344 343 341 339 338 337
313 314 315 315 316 315 315 315 315 315 315 315 315 316 316 316 316 317 318 318 319 321 322 324 326 327 330 335 339 343 345 347 349 350 350 351 351 351 350 349 349 349 350 349 347 347 347 348 349 350 350 350 350 351 351 352 353 353 353 353 354 354 354 353 353 352 351 350 350 349 348 346 345 345 344 344 344 343 343 342 341 340 339 337 336
313 313 314 314 314 314 314 314 313 313 313 314 314 314 314 314 314 314 315 315 315 315 315 316 317 317 320 325 330 333 335 337 340 342 343 343 343 342 341 341 341 341 342 343 343 343 343 343 344 345 346 346 348 349 349 350 351 351 351 352 352 352 351 351 351 350 349 349 348 348 346 345 344 344 343 343 342 341 341 340 339 338 338 337 336
311 312 313 313 313 313 312 312 312 312 312 312 312 312 312 312 312 312 312 312 311 311 310 310 311 310 311 314 317 320 322 324 326 327 327 328 327 326 326 327 328 330 331 331 332 332 333 334 335 338 342 344 346 346 346 347 348 348 348 350 350 349 348 348 349 348 347 347 346 345 344 344 343 342 341 341 340 339 339 337 336 336 336 336 335
310 311 312 312 312 312 311 311 311 311 311 311 311 311 310 310 310 310 309 309 309 308 307 307 307 307 307 308 309 310 311 313 314 314 314 314 314 315 315 316 317 318 319 320 321 322 323 324 326 329 334 338 341 342 342 343 344 345 345 346 346 346 347 347 347 347 346 345 345 344 344 343 342 341 341 340 338 337 336 335 334 334 333 333 333
309 310 310 311 311 310 310 310 310 309 309 309 309 309 309 308 308 307 307 306 306 306 306 305 305 305 305 304 304 304 305 305 306 306 307 308 309 309 310 310 311 312 312 313 314 315 316 316 317 319 322 327 331 333 335 336 338 340 341 342 343 344 344 344 343 342 343 343 343 343 343 342 340 340 340 339 336 334 333 332 331 330 330 330 329
308 309 309 310 309 309 309 309 308 308 308 308 308 308 307 307 306 306 305 304 304 304 304 303 303 302 302 302 302 301 301 301 301 301 302 304 305 306 306 307 307 307 308 309 309 309 310 310 311 312 313 315 318 321 325 328 330 332 334 337 339 340 340 339 339 339 339 340 341 341 341 339 337 336 335 334 332 331 329 327 327 326 325 325 324
307 308 308 308 308 308 307 307 307 307 307 307 306 306 306 306 305 304 303 303 302 302 302 302 301 301 300 300 300 299 299 298 298 298 299 299 300 301 302 303 303 304 304 304 304 304 305 305 306 307 308 309 310 312 315 319 321 322 324 328 331 332 332 333 333 334 334 335 336 336 335 333 331 329 327 326 326 325 323 322 321 321 321 320 319
307 307 307 307 307 307 306 306 306 306 306 305 305 305 304 304 303 302 302 301 301 300 300 300 300 300 299 298 298 298 297 297 297 297 297 297 298 298 299 300 300 300 300 301 301 302 302 302 302 303 304 305 307 308 310 311 313 314 315 317 321 325 327 328 327 327 328 329 329 328 327 325 323 322 320 320 319 319 318 318 318 318 318 317 316
305 306 306 306 306 306 306 305 305 305 305 304 304 303 303 303 302 301 301 300 300 299 299 298 298 298 298 298 297 297 297 296 296 296 296 296 297 298 298 299 299 300 300 300 300 301 301 300 300 300 300 301 303 305 305 306 308 309 310 312 315 318 320 321 321 321 322 322 321 321 321 320 319 318 317 317 317 317 316 315 315 315 314 314 313
Wind_Speed
32 35 34 33 34 36 36 37 37 36 35 34 34 33 33 32 30 30 29 28 27 27 25 24 23 22 21 20 19 17 16 15 15 15 16 15 15 14 14 14 14 14 14 12 11 10 10 10 10 9 9 8 8 7 7 7 7 7 7 7 6 7 6 6 7 9 8 8 10 11 11 12 12 12 14 12 12 14 14 14 13 11 8 6 6
30 33 34 33 35 35 33 34 36 35 33 32 33 34 34 33 32 31 30 29 28 28 28 27 25 24 23 22 21 20 18 17 16 17 17 16 16 16 16 16 15 15 15 15 13 12 12 12 12 11 11 10 9 9 8 8 8 8 8 7 7 7 8 7 7 9 10 9 10 10 11 12 11 11 13 13 13 15 14 13 12 9 8 7 5
29 34 37 37 37 35 32 31 33 33 30 29 31 32 32 34 34 32 32 31 30 30 29 29 28 26 24 23 22 22 21 20 19 18 19 18 18 17 17 17 16 16 16 16 15 13 13 13 12 11 11 12 11 10 9 9 9 9 9 9 8 8 8 9 9 9 11 11 10 10 10 11 11 11 13 13 13 14 14 12 11 8 6 6 5
27 32 36 35 33 32 31 30 29 29 28 28 30 30 29 31 34 34 32 30 31 31 30 30 30 28 26 25 24 24 24 23 22 21 21 20 20 20 18 18 18 17 17 16 15 14 14 14 13 12 12 13 13 12 12 11 11 10 10 11 11 11 10 11 11 10 11 11 10 10 12 13 13 13 13 12 12 13 13 11 10 7 5 5 5
26 29 32 31 28 28 30 28 26 27 29 28 29 29 27 26 30 34 33 30 31 32 32 32 31 30 29 28 28 27 26 26 25 25 24 23 22 22 21 20 20 19 19 18 17 17 16 16 15 14 14 15 15 14 13 13 13 12 11 11 12 11 11 11 12 11 11 11 11 12 13 14 14 14 14 12 10 11 12 11 10 8 6 4 4
25 26 28 28 27 28 29 28 27 28 29 29 28 28 27 25 27 31 33 31 31 32 32 33 33 33 33 32 31 30 29 28 28 28 26 25 25 24 23 23 22 22 22 21 20 19 19 18 17 17 17 17 17 16 15 15 14 13 12 12 11 11 11 11 11 11 11 11 12 12 11 12 13 13 13 13 12 11 9 8 9 8 7 5 4
25 25 27 27 27 28 30 30 29 28 29 30 28 26 26 26 26 29 32 31 31 30 30 33 35 35 35 35 34 34 33 31 31 30 29 27 27 26 25 24 24 24 24 23 21 20 20 20 19 19 20 20 19 18 17 16 15 13 13 13 11 11 11 10 10 10 11 11 11 11 10 10 11 13 14 15 14 11 7 6 7 7 7 6 5
26 26 27 26 26 31 33 31 29 29 29 30 30 27 26 27 27 29 30 30 30 30 29 31 33 35 35 35 36 35 35 34 32 31 31 30 29 28 27 27 25 25 26 25 23 22 21 20 20 20 22 22 21 19 18 17 15 14 14 14 12 11 11 10 10 10 10 10 10 10 9 10 10 12 12 12 10 7 6 7 8 7 7 6 6
28 27 26 27 30 34 34 30 28 29 29 31 33 31 27 27 29 30 31 31 30 29 28 28 29 32 34 35 36 35 35 34 34 33 32 32 31 30 29 29 27 26 26 25 23 23 24 22 20 21 24 24 22 20 19 18 17 16 15 15 14 13 12 11 11 10 10 10 10 9 9 10 9 9 9 8 7 8 9 9 8 7 7 7 6
30 29 27 32 37 37 35 33 31 30 32 34 36 34 31 28 29 30 32 33 31 30 30 28 27 29 31 33 34 35 35 36 36 35 34 33 32 31 30 31 30 28 27 26 23 23 24 24 23 24 25 25 23 22 21 20 19 18 17 16 16 15 13 12 12 11 10 9 9 9 10 10 9 8 8 9 9 9 9 8 7 6 7 8 7
31 32 31 36 39 36 35 36 35 33 36 36 36 36 34 31 30 32 32 32 32 33 32 30 28 27 27 29 31 32 34 37 37 36 35 34 33 32 31 31 31 30 28 27 25 23 23 24 25 26 26 26 24 24 23 21 20 20 19 19 19 18 16 14 13 11 10 10 11 10 11 12 10 9 9 9 9 10 9 7 7 6 6 8 8
29 33 34 36 37 35 35 34 34 35 36 36 36 36 35 32 32 32 31 31 32 32 30 30 31 29 26 26 28 29 32 36 37 36 35 35 33 32 30 27 26 27 27 27 26 24 23 22 23 23 24 25 25 24 23 22 21 20 20 20 20 20 19 18 16 14 11 11 12 12 12 13 12 11 10 10 10 10 10 9 8 7 7 8 8
25 30 31 32 35 36 35 33 33 35 36 36 36 35 34 34 34 33 32 31 31 30 30 30 31 31 28 27 28 28 29 33 36 36 35 34 33 33 31 27 24 24 25 26 26 24 24 23 22 22 24 26 25 24 23 23 22 20 20 19 19 20 20 20 20 18 16 14 13 14 15 14 13 13 13 14 14 12 10 10 9 8 8 9 9
19 25 27 31 34 34 33 33 33 34 36 36 35 33 34 36 37 35 31 29 29 31 31 29 30 32 32 30 30 29 28 31 35 36 35 34 33 33 32 30 25 24 25 26 25 25 25 26 25 24 26 28 27 25 24 23 21 20 20 19 20 20 19 19 20 20 20 20 19 19 19 17 18 19 18 17 17 14 12 11 9 9 9 10 11
12 19 23 26 29 30 31 32 33 33 34 34 33 33 34 35 35 33 29 28 30 34 34 31 30 33 34 32 31 30 30 32 35 35 35 35 33 33 33 32 29 25 25 27 28 28 27 27 28 27 27 28 28 26 24 22 20 19 18 18 18 19 20 20 20 19 20 21 22 23 23 22 21 21 18 17 16 16 15 14 13 12 11 10 11
9 10 15 20 23 26 28 31 32 32 31 30 30 31 32 35 35 33 28 26 27 30 32 32 32 34 34 33 31 30 31 33 35 36 36 35 33 33 33 34 33 29 26 27 29 31 31 30 30 29 29 29 30 28 25 23 19 17 17 17 17 18 19 20 21 19 18 19 20 21 22 21 21 19 17 16 16 16 15 15 15 14 11 10 11
16 10 6 12 17 21 24 26 29 30 28 27 28 30 32 34 34 32 29 26 25 25 27 29 30 31 32 32 32 32 32 34 36 36 36 34 33 33 34 35 35 32 29 28 29 32 33 33 32 31 31 31 30 29 27 24 21 18 17 17 17 17 18 19 21 21 20 19 20 20 20 20 19 18 17 16 17 16 14 13 13 12 11 10 11
18 13 8 4 7 13 19 22 24 25 26 26 28 30 31 31 32 33 31 29 27 26 25 26 27 28 29 30 32 32 32 33 36 37 36 35 34 34 35 35 34 33 31 29 29 31 34 34 34 33 32 32 31 30 27 26 24 22 19 18 18 18 19 18 19 21 22 21 21 20 20 19 18 18 17 16 17 18 18 17 15 12 12 11 11
19 16 13 8 6 9 14 19 22 22 24 26 28 28 28 29 32 34 33 30 28 26 24 24 25 26 28 29 31 32 30 30 33 35 35 35 34 35 36 35 33 31 30 29 29 30 33 35 35 35 34 33 32 30 29 28 27 25 21 19 19 20 20 19 19 20 21 21 22 21 20 19 17 17 17 16 16 18 20 21 17 14 14 13 13
19 18 17 13 10 11 13 16 20 22 23 24 25 24 26 27 28 29 29 28 27 26 25 24 24 25 26 26 28 31 30 29 30 33 34 34 34 35 36 35 33 31 30 29 27 27 30 33 35 36 35 34 32 31 31 30 29 28 24 20 21 23 22 21 22 22 21 21 21 20 20 19 18 18 18 17 18 18 19 20 19 17 17 15 15
20 19 19 18 15 14 12 11 14 18 21 22 22 23 24 24 23 25 27 26 25 26 27 25 25 25 25 25 26 28 29 29 30 32 34 34 34 35 37 38 37 32 29 29 28 27 26 29 33 36 36 34 33 32 32 32 31 31 28 26 27 27 25 23 24 23 21 20 18 17 18 18 18 17 17 17 19 19 19 19 20 21 21 19 17
20 21 20 19 18 15 13 11 11 13 16 19 22 24 24 24 23 25 26 25 24 26 27 27 26 25 25 25 25 26 28 30 30 31 33 34 34 35 38 40 38 33 29 28 29 29 27 28 33 36 36 34 32 32 32 32 32 32 32 31 30 29 27 27 25 20 17 17 17 16 15 15 15 16 16 17 18 19 20 20 20 21 22 22 21
19 20 20 19 17 16 15 15 14 13 14 15 19 24 25 26 26 25 25 25 25 26 27 26 26 26 25 25 26 26 28 30 31 32 33 34 35 36 38 39 39 36 31 30 30 31 29 30 34 36 35 34 33 32 31 31 32 32 31 30 29 29 28 28 26 21 18 17 17 17 17 17 16 16 17 18 17 18 20 22 21 20 23 24 25
19 18 19 19 18 16 15 16 17 18 17 14 16 21 26 28 29 27 27 27 27 28 28 27 26 27 27 26 27 27 27 29 31 33 34 34 35 36 37 38 38 39 37 33 30 29 29 31 35 36 34 34 34 32 31 31 31 31 29 27 28 28 29 29 28 23 19 18 19 19 18 18 17 18 19 20 20 20 21 23 23 22 24 25 25
18 18 19 19 19 18 18 17 18 19 19 15 14 19 26 30 30 29 29 30 29 28 28 28 27 27 27 27 27 27 25 24 27 31 34 35 35 36 37 38 38 40 41 39 34 30 30 32 35 36 35 34 33 33 32 32 31 30 28 27 27 29 30 30 28 23 20 19 19 19 19 19 20 22 23 24 23 19 17 19 22 23 23 23 21
16 18 20 19 19 19 19 19 18 17 17 14 14 19 26 30 30 28 28 29 30 29 28 28 27 27 27 28 27 26 22 21 22 25 29 32 35 36 37 38 38 39 41 41 39 36 35 34 35 35 36 36 34 34 33 33 31 30 29 28 29 30 30 29 28 25 22 20 19 19 19 20 21 22 22 22 21 18 16 17 19 19 19 19 17
14 17 19 20 20 20 19 19 19 18 16 13 13 17 23 27 29 28 27 28 29 28 28 27 27 27 28 28 27 25 22 22 23 22 23 27 33 36 37 38 38 39 41 43 43 41 38 38 38 38 36 35 35 35 34 32 31 30 30 30 30 30 30 29 29 28 27 24 21 19 18 18 19 20 21 21 22 22 19 17 17 17 18 18 15
13 15 17 18 18 19 20 20 20 20 18 15 14 15 17 20 23 26 28 29 29 28 28 27 28 29 29 26 24 24 24 24 24 22 22 25 30 34 37 40 40 40 42 43 43 42 41 38 37 37 37 34 33 33 32 30 30 30 30 31 31 31 30 29 27 27 27 25 21 19 17 17 19 22 22 20 19 20 18 16 16 18 19 18 15
13 14 15 15 15 17 20 21 20 20 19 18 17 16 15 16 18 22 26 29 30 30 29 27 26 28 28 25 22 21 22 24 27 28 28 28 29 30 33 38 40 40 41 41 40 41 41 37 31 29 29 29 27 26 25 24 24 25 27 28 28 28 28 28 28 28 29 27 25 22 20 19 20 23 21 16 15 15 15 14 15 17 19 19 16
14 15 14 13 13 15 19 21 21 20 20 20 19 19 19 19 19 20 23 26 30 32 32 31 28 25 25 24 22 22 23 24 26 28 29 31 32 31 32 35 36 36 37 37 35 33 32 31 28 25 23 23 24 23 22 20 20 21 23 25 25 25 25 27 29 30 31 32 30 26 24 23 22 21 18 16 16 16 16 16 17 18 20 21 19
14 15 15 15 14 15 18 21 22 21 21 20 19 20 21 23 24 22 20 20 24 29 34 36 35 32 31 29 25 24 26 28 27 26 27 29 31 32 33 33 33 34 33 32 32 31 27 25 25 24 23 23 23 23 22 21 20 20 21 23 24 25 25 27 29 30 31 32 30 28 29 25 20 19 19 19 19 20 20 21 22 22 23 23 21
14 15 16 16 16 16 18 21 23 22 21 21 20 19 18 20 24 25 22 18 17 21 28 35 36 37 38 38 33 29 28 29 30 30 30 29 29 30 31 31 31 32 31 29 31 32 28 23 22 22 22 23 23 23 22 22 21 21 22 22 22 23 26 29 32 32 32 30 28 30 31 26 22 24 25 22 22 24 25 24 24 24 23 23 21
15 16 17 17 16 17 19 21 22 22 21 21 21 20 17 15 17 21 24 23 20 18 20 27 33 36 37 39 39 38 34 32 31 30 31 31 31 30 29 28 29 30 30 30 30 28 24 21 21 21 21 22 22 21 21 23 23 22 23 23 22 22 26 32 34 32 31 29 28 28 30 30 29 28 24 22 26 30 27 23 22 21 19 18 19
15 17 18 18 17 17 17 19 20 21 21 22 21 21 19 16 15 17 19 21 20 18 16 18 24 30 34 36 38 39 38 37 35 34 32 30 30 29 28 27 28 29 30 31 30 25 21 21 21 21 21 22 21 20 21 22 23 23 23 24 22 21 23 28 31 30 29 29 27 24 26 30 31 27 22 25 30 28 23 20 20 19 18 18 18
15 17 18 18 17 15 14 16 18 19 21 22 22 22 20 19 18 18 16 16 16 17 17 16 16 18 23 27 31 33 35 35 37 38 35 30 27 27 27 25 25 27 29 32 32 29 25 23 22 22 24 24 22 21 22 23 24 25 24 23 23 22 21 23 28 29 27 24 23 21 22 27 31 28 24 25 27 23 19 19 21 23 23 21 19
14 16 17 18 17 15 14 15 16 17 20 23 23 23 22 20 19 18 18 17 16 16 17 17 16 16 18 18 20 23 26 29 32 35 36 33 29 27 26 26 27 28 30 33 36 36 33 29 25 24 25 25 23 23 25 26 25 25 25 23 23 22 21 21 24 26 23 20 21 21 20 24 30 29 24 23 24 23 21 21 23 26 27 23 21
13 14 16 17 18 17 15 14 14 16 20 22 22 21 21 20 18 17 17 17 17 17 17 16 16 17 18 17 16 17 19 22 26 28 31 31 29 27 27 28 28 29 31 35 38 40 39 35 31 27 25 26 26 26 27 27 26 25 26 26 25 24 22 21 21 22 21 20 21 21 19 21 25 27 25 23 23 23 22 23 24 25 27 27 25
13 14 15 17 20 20 17 14 12 14 17 19 18 18 19 19 18 17 16 15 16 17 18 16 14 14 15 15 14 14 14 16 20 22 24 25 25 26 28 28 27 29 34 38 39 40 40 39 37 35 32 29 28 29 29 28 25 24 24 25 27 27 26 24 22 20 20 20 21 21 21 21 22 23 24 24 21 21 23 25 25 25 29 31 27
12 13 14 16 20 20 17 14 11 12 13 15 16 17 18 19 18 16 15 15 15 16 17 17 16 16 14 13 12 12 11 13 16 19 20 22 24 26 29 29 30 33 36 35 33 35 39 40 41 41 38 34 32 34 34 31 28 28 27 25 24 24 24 23 21 20 19 20 21 22 24 26 24 21 21 22 22 21 22 25 27 29 30 29 27
12 13 13 14 17 19 17 14 11 10 10 12 14 15 15 16 16 15 14 14 15 15 16 17 17 16 14 13 13 13 13 13 15 16 16 18 21 24 27 29 32 36 38 37 34 33 35 38 40 41 40 38 38 39 40 38 36 34 30 25 23 23 23 21 21 21 21 22 23 24 26 29 28 22 20 22 23 21 20 23 27 30 30 28 26
12 12 12 11 13 15 16 14 11 9 9 11 13 15 14 14 15 15 14 14 14 14 14 16 16 15 14 15 16 16 15 14 13 13 14 15 18 22 25 28 32 36 39 40 38 34 33 34 35 37 38 38 38 37 37 38 36 33 28 23 21 23 24 23 21 20 20 21 24 26 28 29 29 25 24 26 26 22 18 18 21 24 25 24 20
12 11 11 9 8 10 12 13 11 9 9 10 11 13 14 14 14 15 15 14 13 13 14 15 16 15 15 16 17 18 18 16 14 14 15 15 16 19 22 25 28 32 36 37 35 33 32 33 34 35 35 35 35 34 33 32 32 32 29 24 21 23 26 26 24 22 22 23 27 29 29 29 28 26 25 26 25 22 20 18 17 18 20 20 19
12 11 10 9 7 8 10 11 10 9 9 9 10 12 13 13 13 14 14 14 13 12 13 13 14 15 14 14 15 16 17 17 16 15 15 15 14 15 17 19 20 24 28 31 29 28 30 31 33 35 35 33 32 32 31 32 34 34 30 26 25 27 28 28 28 27 27 28 29 29 27 26 26 25 24 24 24 24 24 23 19 17 18 22 23
12 11 10 9 7 7 8 9 9 9 9 8 8 9 11 11 11 12 13 13 12 11 11 11 13 13 13 12 9 7 7 8 9 9 9 11 12 12 13 15 17 19 23 26 28 29 30 31 32 33 33 33 33 33 34 35 36 35 32 29 28 27 28 29 31 30 28 27 27 26 24 24 25 25 24 24 25 25 25 25 23 20 20 22 22
11 10 10 8 7 8 8 9 9 9 8 7 7 7 8 10 10 10 11 11 11 10 9 10 10 11 11 10 9 7 4 2 1 1 2 4 6 6 8 10 12 14 15 18 20 22 24 25 27 29 32 34 36 38 38 37 37 36 34 31 28 26 28 31 32 30 28 27 27 27 26 26 26 26 24 24 25 26 26 26 26 25 24 23 20
10 9 9 8 7 8 8 8 8 8 7 6 7 7 8 9 9 9 9 10 10 9 8 8 9 9 10 10 11 11 10 8 7 6 4 3 3 2 2 2 3 4 6 8 10 12 13 14 15 18 23 28 32 33 34 34 35 35 34 31 28 28 30 32 31 29 28 28 28 28 27 26 26 25 25 25 26 26 26 26 25 24 24 24 21
10 9 8 7 7 7 7 7 7 7 6 5 5 5 6 7 8 8 8 8 8 8 8 8 9 9 10 11 12 13 13 11 11 10 9 7 7 6 5 5 5 4 3 2 2 3 4 4 5 7 11 17 21 24 25 26 27 29 30 28 27 28 30 30 27 25 26 27 27 27 26 25 25 25 25 26 26 26 27 28 27 25 24 23 22
9 8 7 7 6 6 6 6 6 6 5 5 4 4 5 5 6 6 6 7 7 7 7 8 9 10 11 11 12 14 14 14 13 13 12 11 11 10 9 9 9 9 8 8 7 6 5 4 3 2 3 4 7 11 14 16 17 19 21 23 25 26 27 26 24 24 25 27 27 27 26 26 25 24 24 25 27 27 27 26 25 24 22 21 21
8 7 6 6 6 5 5 5 5 5 5 5 4 4 4 4 5 5 5 5 6 7 7 7 9 10 12 13 13 15 16 16 16 14 14 14 14 14 15 15 16 16 16 16 16 15 14 13 12 11 9 8 7 7 8 10 11 11 13 16 20 22 22 22 23 25 27 27 28 28 29 28 27 24 22 22 24 25 24 24 23 24 24 24 23
7 6 5 5 5 4 4 4 4 5 5 5 4 4 4 4 4 4 5 6 7 8 8 8 9 10 13 15 15 16 17 18 19 19 20 21 21 21 21 22 23 23 24 24 24 24 24 25 24 23 22 20 19 18 18 17 17 17 16 15 18 21 22 22 22 22 23 24 26 27 28 28 28 26 24 23 23 23 23 23 24 25 25 24 23
6 5 4 4 4 4 3 3 4 4 5 4 4 4 4 4 4 4 6 7 8 9 9 9 8 9 12 14 15 15 16 18 21 23 25 25 26 27 28 30 31 32 32 32 32 33 34 34 34 33 32 31 30 30 29 28 28 28 26 24 24 24 25 25 25 25 25 25 26 27 28 30 29 28 26 25 24 23 23 22 22 22 22 22 20
Wind_Direction
205 209 209 209 213 216 218 219 221 221 223 224 226 227 230 232 234 236 238 240 242 244 246 248 250 251 253 254 255 255 253 250 248 247 246 246 247 246 247 249 247 245 247 251 258 263 259 253 253 255 257 256 254 254 255 252 251 249 247 246 249 255 255 253 272 288 292 302 312 315 321 327 330 338 347 348 349 359 3 2 4 6 18 30 5
203 208 209 209 213 216 216 218 220 220 220 222 224 226 229 232 234 235 237 239 242 243 245 247 250 252 253 254 255 255 255 254 252 251 250 251 251 251 251 252 251 248 249 251 254 258 262 262 261 262 265 265 264 262 259 256 254 251 249 246 245 252 258 259 268 287 295 302 310 313 318 326 329 334 343 343 344 356 2 0 1 3 14 29 10
203 208 211 212 214 215 213 214 217 217 215 218 221 223 227 231 233 234 235 237 240 242 243 245 248 250 252 253 254 255 255 255 254 253 253 253 253 253 254 255 255 252 251 252 252 252 256 259 258 257 261 265 266 264 260 259 257 256 254 251 252 255 261 265 267 278 294 300 304 309 314 320 324 328 337 341 344 353 358 356 358 360 5 18 11
202 207 211 212 211 211 211 212 212 212 212 216 220 220 222 227 232 233 233 234 237 241 242 243 245 247 249 250 253 255 255 255 255 255 255 255 254 254 255 257 258 256 254 253 251 250 251 254 255 254 256 262 264 262 261 261 260 259 256 253 256 257 257 265 267 270 284 293 296 301 307 312 316 323 331 337 340 347 352 354 357 354 352 3 2
202 205 208 208 206 208 210 210 208 209 211 214 218 219 218 221 228 233 231 230 234 238 240 240 241 243 244 247 250 252 254 254 255 255 256 257 256 255 256 258 259 259 259 258 256 255 254 253 254 255 255 259 261 259 257 259 259 257 255 253 255 257 256 262 266 265 271 281 288 294 302 308 312 318 325 329 331 336 344 353 356 352 345 347 350
202 203 204 204 205 207 208 208 208 210 211 214 216 217 216 217 223 230 231 230 231 235 237 238 239 240 241 244 247 250 252 253 254 255 256 257 257 256 256 258 261 261 260 260 259 258 258 256 256 257 256 255 256 256 257 258 258 254 254 255 256 257 257 258 260 261 262 271 280 286 293 300 304 310 317 321 323 323 326 340 351 352 349 346 347
200 201 203 204 205 206 208 209 210 210 212 215 215 214 216 216 218 226 230 230 230 231 233 236 238 239 241 242 245 247 249 251 252 254 254 254 256 256 255 256 259 260 260 259 257 257 257 256 256 257 259 259 257 256 256 258 257 253 254 257 256 254 255 254 254 256 258 265 273 278 284 292 296 301 308 315 319 319 316 325 337 345 347 342 340
199 201 203 204 206 210 212 211 211 212 213 216 216 214 214 216 219 224 227 228 228 229 230 233 237 239 240 242 244 246 247 248 249 251 252 252 253 254 255 255 255 256 258 259 256 256 255 254 252 254 258 261 260 258 256 255 255 254 256 258 256 253 254 254 252 253 256 262 268 272 277 282 286 293 302 309 313 309 306 316 321 326 334 333 328
199 202 202 205 211 215 215 212 212 213 214 218 220 218 216 217 220 223 226 228 228 228 229 230 234 237 239 241 243 244 245 246 247 248 249 250 250 251 252 255 254 253 254 255 254 255 256 254 251 251 256 259 261 261 260 257 256 255 256 260 259 255 252 252 252 252 254 259 263 267 270 272 275 281 288 293 296 298 301 308 310 310 320 325 319
203 203 203 210 216 218 217 216 215 214 216 221 223 223 220 219 220 223 227 229 229 229 230 229 230 234 237 239 241 242 242 245 247 249 248 248 249 249 250 253 254 252 251 252 251 251 254 255 254 254 258 261 261 261 261 260 259 257 256 258 259 255 249 250 251 250 251 257 261 264 266 268 269 270 276 284 290 294 293 295 296 297 314 323 315
207 207 209 215 218 217 216 218 218 218 221 222 223 224 222 221 223 225 227 228 229 229 229 229 229 230 232 235 238 239 241 245 248 249 249 248 247 246 248 251 252 251 250 250 249 249 250 254 256 258 260 261 260 259 260 260 260 260 260 260 259 256 250 247 250 249 250 256 260 261 263 267 269 269 274 281 287 288 286 283 283 282 295 310 310
210 211 214 216 216 215 215 216 217 219 221 222 222 223 222 221 224 226 225 226 228 227 226 227 229 230 229 231 234 235 239 245 249 250 249 249 247 245 244 245 246 247 247 246 248 248 246 248 251 253 256 259 260 260 261 262 263 262 262 262 262 260 256 252 251 250 249 254 259 260 260 264 268 266 270 279 288 291 286 276 271 268 273 287 292
215 213 216 216 216 215 215 214 215 218 220 221 221 221 220 221 223 224 224 224 225 225 224 225 229 230 228 229 233 234 237 244 249 250 249 249 247 244 241 240 240 242 243 245 245 245 245 246 246 246 251 257 259 259 259 262 264 265 264 262 260 260 259 257 255 252 250 253 257 258 257 260 263 266 273 283 289 289 281 273 268 263 265 273 276
228 217 216 217 217 216 215 214 215 218 220 220 220 218 218 222 223 223 222 220 221 224 225 223 226 229 229 230 233 235 237 242 247 250 250 248 247 245 241 240 240 241 242 244 244 243 244 246 246 247 251 256 258 258 257 258 261 263 263 261 259 260 262 260 257 254 251 250 251 256 258 258 263 272 278 283 285 284 277 273 269 264 266 272 273
251 227 219 218 217 216 216 216 216 218 219 218 218 218 219 222 223 221 219 217 220 225 225 222 223 228 230 229 231 234 237 241 245 248 250 249 246 245 242 240 239 241 242 244 245 246 246 246 248 249 250 253 256 257 257 255 254 255 256 255 257 259 261 261 259 256 253 252 252 257 262 263 267 274 277 276 278 281 278 274 271 268 268 271 271
326 260 230 220 218 217 217 217 218 219 218 216 216 217 219 222 224 222 220 221 223 225 224 222 221 225 227 226 226 231 236 239 242 246 249 249 246 243 242 241 240 239 241 243 245 248 248 247 249 250 251 253 256 258 257 253 248 245 246 246 248 251 255 259 262 259 257 258 258 260 264 268 270 273 272 268 267 271 275 274 269 264 258 259 263
355 334 266 227 223 222 219 219 219 218 215 213 215 217 220 222 223 222 221 222 225 225 224 224 224 225 226 224 223 226 231 235 239 243 247 247 243 240 239 240 240 239 240 242 244 247 249 249 249 250 251 252 255 258 258 253 245 240 241 243 244 246 250 256 261 262 260 261 263 265 266 268 270 271 268 263 260 258 258 258 255 249 238 242 256
350 344 338 294 245 234 227 223 222 220 216 215 217 219 221 222 222 223 222 222 224 226 227 228 229 229 228 227 226 228 230 233 236 240 243 244 241 238 238 238 238 238 239 240 241 245 248 250 249 249 250 252 255 257 256 252 246 239 238 240 243 246 249 250 255 262 265 266 267 268 268 267 268 268 266 263 262 257 250 247 248 245 237 237 249
338 336 338 328 290 267 250 234 227 224 221 221 222 222 221 223 225 226 225 224 225 227 228 229 230 231 232 232 232 232 233 234 235 237 240 240 238 237 237 235 234 235 237 238 239 242 246 249 250 249 250 252 254 255 254 251 246 240 236 237 240 244 247 248 250 256 263 268 271 271 272 272 270 268 266 263 261 258 253 251 249 242 238 242 248
332 336 336 324 299 289 278 252 236 231 228 226 226 225 225 226 225 224 224 225 226 227 228 230 232 234 235 235 235 234 234 234 234 236 237 237 236 235 233 231 231 232 234 235 236 238 242 246 249 251 251 251 253 253 252 250 248 243 236 232 238 245 249 252 256 260 262 264 268 270 273 275 272 269 267 262 258 254 252 252 249 241 240 246 252
336 338 337 328 313 302 291 269 250 243 239 236 233 231 230 228 225 223 224 225 225 226 228 230 233 236 237 236 236 236 235 234 233 234 236 236 235 233 231 231 231 231 231 233 235 237 239 241 245 250 251 252 252 252 251 250 250 247 240 237 245 252 255 257 262 267 266 263 262 263 265 267 265 261 259 258 258 257 255 252 249 246 244 246 252
339 336 334 330 321 308 291 273 254 244 244 244 241 238 234 230 227 225 225 225 224 225 227 228 231 237 238 237 237 236 236 236 233 233 235 236 236 234 232 232 232 230 229 232 235 237 238 239 244 249 252 253 253 252 251 251 250 249 248 249 254 258 260 261 262 264 263 261 261 260 257 256 255 251 248 248 250 255 260 259 254 249 249 249 252
338 334 331 329 324 314 297 281 266 251 246 247 248 247 242 235 230 227 225 226 226 228 229 229 230 235 238 239 239 236 234 236 235 234 236 237 237 238 237 235 233 230 229 232 235 237 237 240 245 250 253 255 255 255 254 251 249 251 253 255 258 259 259 259 259 257 256 258 259 257 256 253 250 246 246 248 248 252 261 266 262 253 251 251 251
337 333 328 327 324 318 307 294 282 270 262 259 258 257 250 242 237 234 230 230 232 233 234 232 231 234 237 239 240 236 231 233 236 238 238 238 239 240 239 238 235 233 232 233 235 236 237 241 247 252 255 256 256 256 256 254 252 252 255 257 258 257 254 253 253 252 253 254 253 254 254 249 246 246 251 257 260 260 262 267 267 259 253 252 252
334 330 328 327 323 319 312 303 293 281 271 265 264 265 259 249 242 238 234 232 233 234 234 233 231 233 236 237 239 237 230 229 234 238 240 240 240 241 241 239 237 235 234 235 236 237 239 244 249 254 257 258 258 256 256 255 254 254 256 256 255 252 249 249 249 248 248 248 249 249 247 245 251 260 266 267 266 263 260 262 263 260 255 253 251
330 327 325 323 321 317 312 306 299 290 278 267 260 263 261 252 244 239 235 232 232 232 233 234 234 234 234 235 236 236 233 232 232 234 238 240 241 241 241 241 239 238 237 238 239 240 243 246 250 253 256 257 257 255 255 255 256 256 255 252 250 248 246 245 244 243 243 243 242 240 241 247 257 266 269 267 263 260 256 254 255 253 248 245 243
327 324 321 321 320 317 311 307 304 297 287 273 258 256 258 253 245 240 237 235 233 231 231 233 235 234 234 234 235 235 236 237 235 229 229 235 239 240 239 239 238 237 237 238 239 240 242 246 248 251 253 255 254 254 254 254 253 253 251 249 247 246 245 244 244 245 245 244 241 239 242 249 256 260 262 264 265 264 260 254 252 249 241 236 236
322 319 317 318 320 317 311 307 305 300 293 282 266 258 259 259 253 246 240 238 235 231 229 229 233 235 236 234 232 232 234 233 230 224 220 226 233 236 236 236 235 233 233 235 237 238 240 243 245 246 247 247 248 249 249 247 246 247 249 249 248 247 246 244 242 243 244 244 242 241 242 244 250 256 259 258 258 260 257 251 249 249 243 236 236
319 315 314 316 319 318 313 308 303 299 295 289 279 270 265 267 269 265 255 246 240 236 233 230 230 234 237 233 225 224 225 226 229 230 227 227 229 231 233 236 236 235 237 237 235 235 237 237 237 238 237 236 239 240 239 237 236 237 241 243 243 243 242 239 236 238 242 243 242 242 242 242 247 254 255 249 247 252 250 243 243 246 242 234 231
316 311 312 317 320 319 313 307 302 299 296 294 291 287 280 275 276 279 275 264 253 245 240 238 236 236 240 241 233 227 228 231 236 239 237 235 236 237 240 243 243 243 245 240 231 229 232 233 232 231 228 228 230 232 232 229 225 226 231 233 233 232 233 235 237 239 242 244 244 245 246 244 244 248 250 247 246 246 241 236 236 238 234 229 230
308 308 311 315 319 318 311 305 302 301 299 296 296 297 296 291 284 285 290 285 270 255 247 245 244 242 244 248 247 244 244 245 247 247 245 243 243 244 246 248 248 248 247 239 228 225 228 230 231 231 229 228 229 230 230 229 224 222 225 227 228 227 227 232 237 239 242 244 244 245 247 246 243 244 244 242 240 240 238 237 235 230 224 221 226
301 304 306 309 315 317 310 305 304 302 301 299 297 297 301 301 295 295 300 302 291 270 256 251 249 246 246 248 248 249 252 253 253 252 249 249 249 249 249 250 250 249 245 237 229 228 228 229 231 231 229 229 231 230 230 230 227 225 225 226 225 223 225 234 241 242 242 242 241 244 247 245 241 241 238 234 237 242 241 240 238 231 224 219 221
298 298 298 304 312 314 310 307 305 303 301 301 300 298 296 298 300 302 304 306 307 296 272 258 252 250 249 248 248 248 251 254 256 255 252 250 250 250 251 250 248 245 239 231 227 228 229 230 232 232 231 232 232 230 229 231 231 228 227 228 227 223 230 241 244 240 238 239 239 242 244 242 239 237 231 230 241 246 242 239 239 236 230 228 230
294 293 294 299 304 307 307 305 304 303 303 302 301 299 297 296 298 301 303 306 309 308 298 281 265 256 252 250 248 248 249 251 254 254 253 253 252 250 248 245 240 238 233 229 227 227 229 231 232 232 232 233 233 230 228 230 231 230 230 231 229 226 232 241 241 235 233 237 237 236 237 237 235 231 224 231 242 245 239 234 235 233 229 228 232
294 294 296 297 296 297 300 302 302 302 304 305 302 300 300 301 300 296 294 296 299 298 299 300 293 277 264 257 253 252 252 252 253 252 251 251 249 245 240 233 230 229 228 226 227 228 230 231 230 229 230 232 230 229 230 232 233 233 232 232 233 231 229 232 234 231 229 231 232 228 226 231 233 229 225 229 235 237 235 231 229 226 224 222 221
292 294 296 295 293 292 294 297 300 301 302 304 304 302 301 301 299 296 291 288 287 288 290 294 298 296 290 280 271 265 262 258 256 253 251 248 245 239 231 224 223 224 225 226 228 229 230 231 229 228 230 231 229 229 233 236 236 235 234 232 232 230 226 225 229 228 224 224 229 224 217 222 229 229 226 226 229 232 235 234 231 228 225 220 215
287 290 293 294 293 293 293 294 296 300 302 302 303 302 301 297 293 292 291 289 286 285 288 293 297 296 293 291 287 281 273 265 258 253 249 246 242 236 230 226 225 225 227 229 231 230 231 231 231 229 229 230 230 232 236 237 236 235 235 235 234 232 230 228 228 225 219 220 226 223 213 214 223 226 226 227 228 229 231 232 231 229 226 223 216
281 282 285 289 291 291 291 291 296 302 303 303 302 303 302 300 297 296 295 295 292 286 283 284 285 285 286 289 290 286 276 264 254 247 243 241 237 234 232 229 226 227 230 233 233 234 234 234 233 232 232 231 232 234 236 236 234 233 234 235 237 238 240 237 231 225 219 220 224 223 217 216 219 219 221 222 220 217 219 221 221 219 221 220 212
280 280 284 290 291 290 288 290 296 301 301 301 302 303 303 303 303 304 303 300 296 290 285 280 275 271 270 276 282 282 271 255 247 245 243 239 238 237 234 228 225 230 234 236 235 235 237 238 238 238 238 235 234 236 237 236 234 236 237 235 235 238 240 234 226 220 215 216 221 222 221 222 221 217 217 221 220 214 212 212 212 213 216 214 204
283 285 290 293 292 290 290 291 293 297 299 299 299 299 298 298 298 297 296 293 290 286 284 281 275 269 264 261 265 268 264 254 249 247 242 239 239 238 234 228 229 235 240 241 240 237 237 240 242 242 240 237 236 238 239 238 237 237 238 236 234 235 235 228 221 217 215 216 219 220 221 225 226 223 223 229 230 224 215 211 210 213 216 213 203
285 285 287 287 284 285 288 290 291 293 295 296 296 295 294 295 295 293 291 288 287 287 286 283 280 276 272 266 262 259 255 253 254 251 244 240 241 240 237 235 237 241 244 244 243 241 240 242 245 244 242 241 239 238 238 239 238 235 232 230 230 231 230 226 222 218 215 214 215 215 218 223 226 227 230 234 235 233 227 219 214 213 215 214 202
289 286 282 277 273 276 281 285 290 293 293 292 294 295 296 297 297 297 295 294 295 296 294 292 291 290 288 286 279 267 257 251 250 249 246 242 241 241 241 243 245 248 248 246 245 244 243 243 245 246 243 242 241 239 238 239 239 237 233 228 225 225 226 225 221 216 213 213 213 213 215 219 222 224 228 231 231 230 228 226 221 214 211 208 200
291 288 283 276 268 266 270 277 282 285 287 291 295 298 301 302 301 300 301 302 305 308 308 308 311 312 309 304 294 277 264 256 252 249 245 242 241 240 240 240 242 245 247 246 246 247 246 245 247 248 247 245 244 242 240 241 241 238 232 227 224 224 223 221 218 216 214 213 214 214 214 215 216 216 217 218 218 217 217 218 216 210 206 205 200
291 290 289 283 276 271 271 276 279 280 283 290 296 300 304 305 306 307 308 309 314 322 326 327 332 336 334 329 320 301 276 262 256 251 243 238 238 238 239 240 240 241 244 245 247 250 250 249 249 249 249 249 249 247 244 242 240 238 234 230 227 223 220 220 222 222 218 215 215 214 212 210 209 208 206 207 208 208 208 208 204 198 198 201 198
291 293 292 289 287 287 286 286 289 292 296 305 313 316 315 312 311 313 317 320 325 334 342 348 353 359 2 6 13 23 33 33 329 273 247 243 248 252 254 254 252 250 251 252 253 255 257 257 255 252 250 250 249 247 243 239 236 235 235 233 227 222 223 228 231 229 224 221 219 215 210 207 205 201 199 201 203 203 202 200 196 193 194 195 194
292 295 294 291 293 297 297 297 300 303 310 321 328 328 324 320 318 321 327 332 336 342 353 4 12 16 21 30 40 47 52 58 62 60 53 41 20 359 343 324 294 273 270 271 270 269 268 266 261 253 248 245 242 239 236 234 233 232 231 228 224 225 230 233 231 227 224 223 219 214 208 204 199 196 195 195 197 197 196 195 192 190 191 191 191
295 296 295 294 296 299 300 303 308 313 320 330 337 337 330 324 323 328 336 345 351 356 6 19 30 37 39 43 51 56 58 60 62 61 59 59 60 59 59 59 57 53 41 9 323 301 286 271 253 241 237 236 235 233 231 230 229 228 228 226 223 223 225 226 222 217 216 214 209 203 199 194 191 192 192 190 190 192 194 194 192 187 185 184 182
300 301 300 300 301 304 309 311 315 325 336 341 344 346 340 333 333 337 343 353 3 9 19 33 46 55 59 59 61 63 65 66 67 68 69 73 77 80 84 85 85 85 84 80 74 71 71 76 93 133 183 209 219 220 218 216 217 218 218 218 215 212 211 209 203 198 198 197 192 186 183 181 182 185 186 186 186 187 186 184 181 175 169 164 161
307 308 309 308 307 312 323 330 333 340 349 355 359 359 353 348 351 356 4 19 27 29 34 45 58 68 73 73 72 72 72 72 71 70 71 74 77 82 87 89 90 90 88 84 81 79 79 78 79 83 87 93 105 127 148 161 170 176 183 190 193 191 186 182 179 179 180 179 175 171 169 167 166 168 171 174 176 173 167 162 157 152 148 144 143
319 320 322 322 321 320 326 341 356 5 10 13 15 14 12 11 13 17 28 42 47 48 50 56 64 72 77 78 77 77 77 77 76 76 76 76 78 81 84 86 86 85 85 85 84 85 83 81 78 77 78 81 87 92 97 104 111 115 121 137 153 158 158 157 156 157 158 158 157 156 154 149 146 147 149 150 151 147 142 138 137 136 135 134 133
334 343 346 344 342 340 340 357 17 28 34 37 37 36 34 31 31 39 50 57 59 61 63 64 67 73 80 82 82 83 84 84 84 83 82 82 81 81 82 83 83 84 84 85 85 85 84 81 78 75 73 73 77 82 83 85 89 93 97 103 111 119 125 129 129 130 132 134 134 134 132 130 130 131 133 135 136 132 127 124 124 124 123 122 122